Location: *
(52.3833°S, 159.0833°W)
Time: 12:41:06
(UTC+00:00)

Daily predictions for brighter satellites

Satellite Brightness Start Highest point End
(mag) Time Altitude Azimuth Time Altitude Azimuth Time Altitude Azimuth
CZ-4C R/B 4.2 13:49:50 31° SE 13:49:50 31° SE 13:52:53 10° SE
ATLAS 2AS CENTAUR R/B 4.2 14:17:14 26° SSE 14:17:14 26° SSE 14:20:36 10° SE
USA 234 4.0 14:10:46 10° E 14:15:30 48° ESE 14:15:30 48° ESE
Cosmos 1697 Rocket 4.4 14:21:06 29° E 14:21:06 29° E 14:25:18 10° SE
Lacrosse 5 rocket 4.4 14:40:34 13° ESE 14:40:34 13° ESE 14:41:01 10° ESE
ATLAS CENTAUR R/B 3.8 14:59:01 21° SSE 14:59:01 21° SSE 15:02:02 10° ESE
Cosmos 2369 Rocket 4.4 15:03:37 14° S 15:03:37 14° S 15:05:10 10° SSE
BREEZE-M DEB (TANK) 4.5 15:02:44 66° NNW 15:03:25 69° N 15:07:49 10° E
Cosmos 2263 Rocket 2.9 15:07:39 46° SSE 15:08:33 50° SE 15:14:06 10° NE
Envisat 3.7 15:13:51 10° NE 15:18:50 52° ESE 15:20:54 32° S
NOSS 2-3 (D) 4.4 15:22:37 74° NW 15:22:37 74° NW 15:28:12 10° NE
USA 267 4.4 15:16:30 10° ESE 15:22:37 39° NE 15:27:13 17° NNW
Cosmos 1943 Rocket 4.4 15:25:10 12° S 15:25:10 12° S 15:26:36 10° SSE
Meteor 2-10 4.1 15:25:32 68° SE 15:25:58 73° ESE 15:31:07 10° NNE
USA 229 DEB 3.9 15:35:51 47° NW 15:35:51 47° NW 15:41:18 10° NNE
USA 229 3.9 15:35:57 47° NW 15:35:57 47° NW 15:41:25 10° NNE
CZ-4C R/B 3.1 15:35:01 45° SSW 15:35:16 45° SSW 15:41:20 10° SE
Cosmos 1980 Rocket 2.7 15:32:44 19° N 15:36:45 57° ENE 15:42:18 10° SE
Okean O Rocket 2.4 15:34:14 10° NNE 15:37:18 44° NNE 15:37:18 44° NNE
Cosmos 1763 Rocket 3.9 15:35:44 24° N 15:38:52 64° ENE 15:44:07 10° SSE
Cosmos 2369 3.6 15:38:46 61° NNW 15:39:51 90° WNW 15:45:38 10° SSE
BREEZE-M R/B 4.4 15:38:52 54° WNW 15:40:39 75° N 15:53:40 10° E
Cosmos 1898 Rocket 4.3 15:45:46 37° NNW 15:45:46 37° NNW 15:49:11 10° N
Cosmos 1844 Rocket 4.3 15:41:27 17° S 15:44:56 29° SE 15:49:55 10° E
NOSS 3-1 (A) 3.5 15:47:29 51° NW 15:47:29 51° NW 15:52:39 10° NNE
Aureole 3 Rocket 3.4 15:50:03 51° NNE 15:50:03 51° NNE 15:53:29 10° NNE
Cosmos 468 Rocket 3.9 15:50:36 39° NNW 15:52:40 89° ENE 15:57:58 10° SSE
Cosmos 2026 Rocket 4.0 15:47:49 10° N 15:54:01 86° E 16:00:23 10° S
Cosmos 2278 3.6 15:56:07 25° NNW 15:59:36 89° NE 16:05:22 10° SSE
USA 234 3.2 15:53:41 10° NE 16:00:18 76° NNW 16:02:51 41° WSW
SL-16 R/B 4.4 15:57:06 10° S 15:58:24 13° SSW 15:58:24 13° SSW
SL-16 R/B 4.1 15:56:48 10° NNE 16:01:43 31° ENE 16:06:40 10° SE
Cosmos 540 Rocket 4.2 15:56:59 10° N 16:02:02 53° ENE 16:07:09 10° SSE
Cosmos 1697 Rocket 2.7 16:02:54 50° WNW 16:04:05 61° SW 16:09:46 10° SSE
Cosmos 2278 Rocket 4.4 16:01:43 11° SSW 16:05:13 17° SSE 16:08:53 10° ESE
SMAP 2.9 16:00:54 10° N 16:05:36 72° WNW 16:07:02 44° SSW
Cosmos 1092 Rocket 3.9 16:00:55 10° NNW 16:07:05 63° WSW 16:13:17 10° S
ATLAS 2AS CENTAUR R/B 3.7 16:04:40 24° SSW 16:07:18 32° SSE 16:13:12 10° ESE
Cosmos 372 Rocket 3.9 16:05:26 35° SSW 16:07:43 88° WNW 16:12:52 10° NNE
Cosmos 841 Rocket 4.0 16:02:36 10° N 16:07:49 61° ENE 16:13:07 10° SSE
CZ-4 R/B 3.2 16:05:36 10° NE 16:09:25 33° ESE 16:13:19 10° S
Cosmos 1689 Rocket 3.0 16:06:43 10° SSE 16:09:44 49° E 16:12:43 10° N
CZ-4B R/B 3.4 16:05:12 10° N 16:10:39 51° W 16:12:45 35° SW
Cosmos 2228 3.7 16:06:29 10° S 16:10:44 55° ESE 16:14:58 10° NNE
Cosmos 1953 3.0 16:14:22 38° NNW 16:14:22 38° NNW 16:17:07 10° N
Okean-O 3.6 16:09:10 10° NE 16:13:28 47° ESE 16:17:50 10° S
Cosmos 2150 Rocket 4.2 16:10:31 21° SSW 16:14:15 78° ESE 16:19:37 10° NNE
Cosmos 1125 Rocket 4.1 16:10:44 16° SSW 16:14:56 55° ESE 16:20:07 10° NE
Cosmos 1937 Rocket 3.9 16:15:37 40° WNW 16:15:37 40° WNW 16:20:13 10° N
Radarsat Rocket 4.4 16:08:54 10° N 16:15:48 49° WNW 16:20:01 21° SW
COSMOS 2455 4.5 16:14:01 18° SSW 16:15:48 20° S 16:20:11 10° SE
Cosmos 1417 Rocket 4.4 16:09:40 10° S 16:16:00 85° W 16:22:19 10° N
Lacrosse 5 rocket 1.5 16:16:13 51° SSW 16:16:19 51° SSW 16:20:22 10° ESE
Cosmos 1656 4.3 16:16:52 35° SW 16:17:05 35° SW 16:22:21 10° SSE
Cosmos 1908 3.2 16:17:14 30° S 16:19:06 86° E 16:22:59 10° N
Nadezhda 4 Rocket 4.4 16:19:04 36° WSW 16:19:31 36° WSW 16:25:16 10° S
ADEOS Rocket 3.3 16:17:11 10° SSE 16:22:44 61° ENE 16:28:16 10° N
YAOGAN 6 3.2 16:20:07 10° N 16:22:43 39° NNW 16:22:43 39° NNW
Cosmos 1025 Rocket 3.1 16:23:12 44° WNW 16:24:00 50° WSW 16:28:16 10° S
Cosmos 1300 4.3 16:20:42 10° S 16:24:21 36° ESE 16:27:56 10° NE
Cosmos 1241 Rocket 4.5 16:20:33 14° NW 16:26:19 80° SW 16:32:52 10° SE
Meteor 2-13 Rocket 4.5 16:21:58 10° NNW 16:28:02 58° WSW 16:34:13 10° S
ASTEX 1 3.4 16:24:47 10° N 16:29:45 89° ESE 16:34:47 10° S
COSMO-SKYMED 1 3.8 16:25:42 10° SSE 16:29:59 45° E 16:34:13 10° N
Cosmos 1655 Rocket 4.2 16:24:11 10° N 16:30:25 74° E 16:36:44 10° SSE
H-2A R/B 3.9 16:27:30 10° S 16:29:09 18° SSW 16:29:09 18° SSW
Cosmos 2227 4.5 16:30:35 31° WSW 16:32:51 46° WNW 16:38:14 10° N
AQUARIUS 4.5 16:29:46 10° N 16:34:07 44° W 16:35:53 30° SW
Meteor 1-16 Rocket 4.4 16:29:56 10° SSW 16:35:39 52° W 16:41:09 10° N
Cosmos 2360 4.4 16:33:53 22° WNW 16:37:24 50° SW 16:43:01 10° SSE
Cosmos 2266 Rocket 4.5 16:31:31 10° N 16:37:44 64° E 16:43:54 10° SSE
ATLAS CENTAUR R/B 2.3 16:35:12 22° SSW 16:38:09 53° SE 16:42:55 10° ENE
IRS-1C Rocket 4.1 16:35:29 10° N 16:40:45 68° WNW 16:46:07 10° SSW
Meteor 2-5 Rocket 4.2 16:36:02 10° N 16:41:31 62° E 16:47:05 10° SSE
Cosmos 1726 4.2 16:43:50 15° NW 16:43:50 15° NW 16:44:39 10° NW
Cosmos 2322 Rocket 3.3 16:36:09 10° N 16:41:38 49° ENE 16:47:10 10° SE
Cosmos 1356 Rocket 3.7 16:39:29 10° S 16:43:39 69° ESE 16:47:51 10° NNE
YAOGAN 1 3.2 16:40:10 10° NNE 16:44:28 58° ESE 16:48:50 10° S
Meteor 2-8 Rocket 4.5 16:38:30 10° SSW 16:44:31 57° W 16:50:32 10° N
Cosmos 1536 Rocket 4.0 16:41:00 10° NW 16:45:07 39° WSW 16:49:18 10° S
Aureole 3 3.5 16:40:08 10° SSW 16:45:10 66° W 16:49:05 10° N
Cosmos 2292 Rocket 4.4 16:40:40 10° N 16:47:08 77° E 16:51:59 10° SSE
Cosmos 2369 Rocket 4.4 16:45:54 10° SSW 16:48:06 12° S 16:50:18 10° SSE
Cosmos 2315 Rocket 4.2 16:42:43 10° S 16:49:05 75° ESE 16:55:21 10° NNE
Cosmos 2058 Rocket 3.4 16:44:48 10° S 16:49:18 69° ESE 16:53:45 10° NNE
Cosmos 1674 2.6 16:47:49 10° NNW 16:51:35 61° WSW 16:55:25 10° S
Cosmos 1553 Rocket 4.3 16:45:53 10° SSW 16:52:03 47° W 16:58:08 10° NNW
Cosmos 2263 Rocket 2.7 16:49:22 22° SW 16:52:23 38° WNW 16:57:37 10° N
Helios 1A Rocket 3.3 16:50:58 10° N 16:54:53 42° W 16:57:51 17° SSW
Meteor 2-15 Rocket 4.5 16:49:32 10° SSW 16:55:50 86° W 17:02:03 10° N
USA 186 4.5 16:55:47 10° E 16:57:04 13° ESE 16:58:25 10° SSE
Cosmos 1606 Rocket 3.6 16:53:07 10° SSW 16:57:27 55° W 17:01:43 10° N
Cosmos 2298 Rocket 4.3 16:53:44 16° SW 16:57:47 49° WNW 17:02:53 10° N
Envisat 3.9 16:53:46 10° NNW 16:58:08 28° W 17:01:07 17° SW
S3M 4.2 16:59:28 10° SSW 17:05:24 49° W 17:11:17 10° NNW
In-Cosmos 22 4.4 17:00:28 10° NW 17:05:42 43° WSW 17:10:54 10° S
USA 267 3.3 16:59:27 10° ESE 17:06:07 89° NNE 17:12:45 10° WNW
Cosmos 2285 Rocket 4.5 17:02:17 11° SW 17:08:02 41° WNW 17:14:01 10° N
NOAA 11 4.4 17:04:16 10° N 17:09:42 55° W 17:15:12 10° SSW
Cosmos 1943 Rocket 4.3 17:08:17 10° SSW 17:10:41 13° SSE 17:13:06 10° SE
Cosmos 1437 3.1 17:08:15 10° NW 17:11:07 36° WSW 17:14:02 10° S
ATLAS 5 CENTAUR R/B 3.2 17:04:34 10° NNW 17:11:35 62° NE 17:17:57 10° SE
Cosmos 1844 3.9 17:06:04 10° SSW 17:11:46 73° ESE 17:17:27 10° NE
Cosmos 2360 Rocket 3.4 17:07:22 10° N 17:12:44 46° ENE 17:18:09 10° SE
Cosmos 2208 Rocket 4.1 17:07:44 10° NW 17:12:50 52° WSW 17:17:59 10° SSE
Cosmos 1814 Rocket 4.2 17:09:54 10° NW 17:15:08 54° WSW 17:20:29 10° SSE
H-2A R/B 2.7 17:10:54 10° NE 17:15:45 54° ESE 17:20:45 10° S
Okean O Rocket 3.5 17:13:29 10° WNW 17:14:45 13° W 17:14:45 13° W
MOLY 3-50 4.4 17:15:05 14° SW 17:18:03 57° SE 17:24:42 10° ENE
SKYMED 2 3.6 17:13:42 10° S 17:18:07 67° WSW 17:22:28 10° NNW
Cosmos 1980 Rocket 2.8 17:15:53 10° WNW 17:21:03 35° SW 17:26:16 10° SSE
Cosmos 1763 Rocket 4.4 17:16:33 10° WNW 17:21:06 28° SW 17:25:41 10° S
Cosmos 2084 3.4 17:18:23 15° SW 17:21:54 75° NW 17:26:11 10° NE
Cosmos 1726 Rocket 4.1 17:20:32 10° SSW 17:24:37 38° W 17:28:40 10° NNW
CZ-4C R/B 3.5 17:20:13 13° WSW 17:25:17 30° S 17:30:25 10° ESE
Cosmos 1844 Rocket 2.7 17:23:41 10° SSW 17:29:26 76° WNW 17:35:08 10° NNE
Okean 1-7 Rocket 3.6 17:25:03 10° NNW 17:29:33 78° WSW 17:34:09 10° S
Resurs 01 Rocket 4.1 17:27:57 10° E 17:30:59 18° SE 17:34:02 10° SSE
Cosmos 1812 Rocket 4.3 17:27:19 10° S 17:31:51 58° ESE 17:36:19 10° NNE
CZ-2C R/B 3.3 17:28:25 10° NNE 17:33:37 82° ESE 17:39:12 10° SSW
NOSS 3-4 (A) 4.3 17:27:55 10° SW 17:35:18 55° SSE 17:41:55 10° ENE
NOSS 3-4 (C) 4.3 17:28:02 10° SW 17:35:25 55° SSE 17:42:01 10° ENE
Cosmos 1689 Rocket 4.0 17:39:00 10° SSW 17:40:37 14° WSW 17:42:15 10° W
Cosmos 1939 Rocket 3.8 17:37:34 10° NNW 17:41:13 30° W 17:44:58 10° SSW
CSL-04 Rocket 3.8 17:36:09 10° N 17:41:34 64° WNW 17:47:08 10° SSW
Ariane Rocket 3.6 17:36:36 10° NNE 17:41:38 62° ESE 17:46:45 10° S
HJ-1C 3.4 17:38:53 10° N 17:42:15 68° WNW 17:45:39 10° SSW
Cosmos 540 Rocket 4.2 17:39:15 10° WNW 17:43:55 32° SW 17:48:37 10° SSE
USA 234 4.3 17:38:23 10° N 17:44:00 30° NW 17:49:40 10° WSW
CZ-4 R/B 2.3 17:40:33 10° NNW 17:44:25 33° W 17:48:22 10° SSW
SL-16 R/B 2.3 17:39:54 10° NW 17:45:32 59° SW 17:51:14 10° SSE
CSL-04 Debris 4.4 17:41:59 10° N 17:47:19 56° W 17:52:44 10° SSW
Cosmos 1626 2.7 17:44:19 10° NW 17:47:51 37° WSW 17:51:26 10° S
Cosmos 2228 4.4 17:44:46 10° SW 17:47:53 19° W 17:50:58 10° NW
Cosmos 1400 Rocket 3.9 17:44:49 10° S 17:48:54 49° ESE 17:52:58 10° NNE
Cosmos 1697 Rocket 4.1 17:45:10 10° WSW 17:49:16 20° SSW 17:53:24 10° SSE
Cosmos 841 Rocket 4.4 17:45:29 10° WNW 17:50:07 29° SW 17:54:47 10° SSE
Okean-O 3.8 17:46:27 10° NNW 17:50:10 25° W 17:53:57 10° SW
Cosmos 2278 Rocket 3.1 17:45:16 10° SSW 17:50:48 47° SE 17:56:19 10° ENE
SL-14 R/B 3.8 17:50:26 10° NW 17:54:06 36° WSW 17:57:48 10° S
Cosmos 2333 Rocket 3.9 17:49:10 10° N 17:54:27 40° ENE 17:59:46 10° SE
Orbus 7S? 4.3 17:51:50 10° WNW 17:55:40 89° SSW 18:04:44 10° ESE
Lacrosse 5 rocket 1.9 17:52:06 10° WSW 17:56:00 45° S 18:00:07 10° E
CZ-2D R/B 4.5 17:52:59 10° NNW 17:56:16 25° W 17:59:35 10° SW
Meteor 2-14 Rocket 4.5 17:51:58 10° NNW 17:58:04 78° WSW 18:04:18 10° S
Cosmos 2098 Rocket 4.4 17:53:29 10° NW 17:59:15 47° WSW 18:06:08 10° S
ATLAS 2AS CENTAUR R/B 3.0 17:52:55 10° SW 17:59:19 61° SE 18:06:12 10° ENE
Cosmos 1300 3.9 17:56:40 10° SW 17:59:51 24° W 18:02:59 10° NW
